Regional Weather Roundup
Issued by NWS

Home | Current Version | Previous Version | Graphics & Text | Print | Product List | Glossary On
Versions: 1 2 3 4 5 6 7 8 9 10 11 12 13 14 15 16 17 18 19 20 21 22 23 24 25 26 27 28 29 30 31 32 33 34 35 36 37 38 39 40 41 42 43 44 45 46 47 48 49 50
000
ASUS45 KTFX 170410
RWRMT
MONTANA REGIONAL WEATHER ROUNDUP
NATIONAL WEATHER SERVICE GREAT FALLS MT
1000 PM MDT MON OCT 16 2017

NOTE: "FAIR" INDICATES FEW OR NO CLOUDS BELOW 12000 FEET WITH NO
SIGNIFICANT WEATHER AND/OR OBSTRUCTIONS TO VISIBILITY.

MTZ001>007-043-170500-
WEST OF THE DIVIDE

CITY           SKY/WX    TMP DP  RH WIND       PRES   REMARKS
KALISPELL      PTCLDY    49  32  52 S10       30.08R
MISSOULA       CLEAR     45  29  53 NW7       30.15S
BUTTE          CLEAR     37  25  61 S8        30.24R WCI  31
MULLAN PASS    CLEAR     44  21  40 SW6       30.19F
ANACONDA         N/A     48  21  34 SW7       30.20S
DEER LODGE       N/A     39  27  60 W6        30.20R
EUREKA           N/A     55  28  35 MISG      30.05S
HAMILTON         N/A     52  28  40 SW6       30.17S
LIBBY            N/A     48  32  53 CALM      30.07S
$$

MTZ008-052>055-170500-
SOUTHWEST MONTANA

CITY           SKY/WX    TMP DP  RH WIND       PRES   REMARKS
BOZEMAN        CLEAR     46  27  47 S5        30.19R
DILLON         CLEAR     46  22  38 S14       30.23R
W YELLOWSTONE  CLOUDY    41  14  33 S8        30.36R
ENNIS          CLEAR     46  19  34 S14G20    30.30R
THREE FORKS      N/A     51  23  33 S8        30.14S
$$

MTZ009-010-012-014-046-048-049-054-170500-
EAST SLOPES AND CENTRAL MONTANA

CITY           SKY/WX    TMP DP  RH WIND       PRES   REMARKS
CUT BANK       CLEAR     55  22  27 SW23G31   29.95F
GREAT FALLS    CLEAR     57  21  24 SW21G31   30.03F
MALMSTROM AFB  CLEAR     59  22  23 SW24G32   30.02S
HELENA         CLEAR     51  26  37 E6        30.13R
CHOTEAU          N/A     55  21  26 SW13G18   30.04R
$$

MTZ011-013-016-021-045-047-050-051-170500-
NORTH CENTRAL MONTANA

CITY           SKY/WX    TMP DP  RH WIND       PRES   REMARKS
HAVRE          CLEAR     54  26  34 SW16      29.90F
LEWISTOWN      CLEAR     50  24  36 SW13      30.05F
N BAR RANCH      N/A     57  18  21 W12       30.07F
CHINOOK          N/A     63  23  22 SW20      29.87F
$$

MTZ017>020-022>027-061-062-170500-
NORTHEAST MONTANA

CITY           SKY/WX    TMP DP  RH WIND       PRES   REMARKS
GLASGOW        CLEAR     55  29  36 SW8       29.89F
JORDAN           N/A     45  33  63 W6        29.97S
SIDNEY         CLEAR     40  32  73 CALM      29.95S
WOLF POINT     CLEAR     45  31  58 CALM      29.91F
MALTA          CLEAR     50  28  43 W12       29.87F
PLENTYWOOD       N/A     48  28  46 CALM      29.89F
$$

MTZ028>42-056>058-170500-
SOUTHCENTRAL AND SOUTHEAST MONTANA

CITY           SKY/WX    TMP DP  RH WIND       PRES   REMARKS
BAKER          CLEAR     41  30  65 CALM      30.03S
BILLINGS       CLEAR     58  27  30 W14       30.08S
LIVINGSTON     CLEAR     55  20  25 W20G25    30.16S
MILES CITY     CLEAR     50  31  48 SW7       30.00S
BIG TIMBER     CLEAR     55  19  24 W21G28    30.13R
FORSYTH          N/A     59  21  23 SW3       30.02S
LAUREL           N/A     54  27  35 SW14      30.10S
$$

REGIONAL REPORTS...DAKOTAS

CITY           SKY/WX    TMP DP  RH WIND       PRES   REMARKS
WILLISTON      CLEAR     42  32  67 CALM      29.93S
MINOT          CLEAR     50  34  54 SW12      29.91S
DICKINSON      CLEAR     44  29  55 CALM      29.98S
BEACH            N/A     41  30  65 S7        30.03S
CROSBY           N/A     43  32  65 S12       29.88F
TIOGA            N/A     43  30  61 SW9       29.94F
WATFORD CITY     N/A     39  32  75 SW7       29.94F
BISMARCK       CLOUDY    42  32  67 CALM      29.98R
GRAND FORKS    PTCLDY    49  37  63 W7        29.89R
FARGO          CLOUDY    47  39  74 SW5       29.91R
BUFFALO SD       N/A     50  27  40 W6        29.99S
RAPID CITY     CLEAR     48  29  47 N5        30.11R
$$

REGIONAL REPORTS...WYOMING/IDAHO/WASHINGTON

CITY           SKY/WX    TMP DP  RH WIND       PRES   REMARKS
GILLETTE       CLEAR     38  27  64 S7        30.14S
SHERIDAN       CLEAR     37  27  67 SW5       30.12S
BUFFALO WY     CLEAR     51  17  26 SW8       30.18S
CODY           CLEAR     55  17  22 NW6       30.22
YELLOWSTONE LA   N/A     26  20  77 CALM      30.40S
IDAHO FALLS    CLOUDY    37  30  75 N3        30.32S
SALMON         CLEAR     37  28  70 CALM      30.26R
BOISE          CLEAR     46  30  53 SE6       30.25S
SPOKANE        CLEAR     52  31  44 S7        30.09F
$$

REGIONAL REPORTS...ALBERTA

CITY           SKY/WX    TMP DP  RH WIND       PRES   REMARKS
EDMONTON       CLEAR     41  32  70 SW3       29.58R
CALGARY        MOCLDY    61  32  33 NW20G25   29.68S
LETHBRIDGE     PTCLDY    57  28  33 SW17      29.82R
MEDICINE HAT   PTCLDY    57  27  30 SW20G26   29.73F
$$

REGIONAL REPORTS...SASKATCHEWAN

CITY           SKY/WX    TMP DP  RH WIND       PRES   REMARKS
SWIFT CURRENT  CLEAR     52  30  43 SW18      29.74F
REGINA         CLEAR     43  28  56 S12       29.77F
SASKATOON      MOCLDY    48  32  53 S7        29.69F
$$



USA.gov is the U.S. government's official web portal to all federal, state and local government web resources and services.